World > North America > United States > Ohio > Mount Eaton

Hourly Mount Eaton, OH Regional Weather

Feedback E-mail the Weather

Quick WX

Mount Eaton, OH Weather Maps

°F °C°F °C
Mount Eaton Weather Map
UTC Time: 8/19/2022, 10:44
Your Time:

Mount Eaton, OH Regional Weather

Expires:202208191100;;305760
ASUS41 KCLE 191010
RWRCLE
OHIO REGIONAL WEATHER ROUNDUP
NATIONAL WEATHER SERVICE CLEVELAND, OH
600 AM EDT FRI AUG 19 2022

NOTE: "FAIR" INDICATES FEW OR NO CLOUDS BELOW 12,000 FEET WITH NO
SIGNIFICANT WEATHER AND/OR OBSTRUCTIONS TO VISIBILITY.


OHZ009>014-019>023-028>033-038-089-191100-
   NORTHEAST OHIO
  
CITY           SKY/WX    TMP DP  RH WIND       PRES   REMARKS
CLE-HOPKINS    PTCLDY    59  56  89 CALM      30.03R                  
CLE-LAKEFRONT  CLEAR     66  59  78 SE6       30.02R                  
CUY CO. ARPT   CLEAR     58  55  91 CALM      30.06R                  
LORAIN-ELYRIA  CLEAR     60  56  86 CALM      30.05R                  
ASHTABULA      CLEAR     59  57  93 CALM      30.06R                  
AKRON-CANTON   PTCLDY    63  58  83 CALM      30.05R                  
WOOSTER        CLEAR     56  56 100 CALM      30.06R FOG              
MANSFIELD      CLEAR     60  57  89 CALM      30.06R                  
YOUNGSTOWN     PTCLDY    55  53  93 SE3       30.06R                  
$$


SKY/WX - Weather  TMP - Temperature  DP - Dew Point  RH - Humidity
WIND - Wind Direction/Speed PRES - Barometric Pressure VSB - Visibility
WCI - Wind Chill Index E13G22 Wind - East Wind 13 mph/Gusts of 22 mph

Trending Headlines

Mount Eaton Radar Loop



Mount Eaton Quick Facts


National Two Day Weather Forecast


E-mail the Mount Eaton Weather Forecast

Voice your opinion or tell us about page issues...